Regional Weather Roundup
Issued by NWS State College, PA

Home | Current Version | Previous Version | Graphics & Text | Print | Product List | Glossary Off
Versions: 1 2 3 4 5 6 7 8 9 10 11 12 13 14 15 16 17 18 19 20 21 22 23 24 25 26 27 28 29 30 31 32 33 34 35 36 37 38 39 40 41 42 43 44 45 46 47 48 49 50

000
ASUS41 KCTP 270410
RWRCTP

REGIONAL WEATHER ROUNDUP
NATIONAL WEATHER SERVICE STATE COLLEGE PA
1200 AM EDT FRI MAY 27 2016

Note: "fair" indicates few or no clouds below 12,000 feet with no
significant weather and/or obstructions to visibility.

* = STATION THAT DOES NOT REPORT PRECIPITATION /E.G. RAIN...SNOW...ETC/
    THUNDER OR FOG.

PAZ002>004-007>009-013>016-020>023-029>032-270500-
WESTERN PENNSYLVANIA

CITY           SKY/WX    TMP DP  RH WIND       PRES   REMARKS
ERIE           CLOUDY    73  63  70 S9        29.98R
MEADVILLE      CLOUDY    68  62  81 S6        30.04R
FRANKLIN*      CLOUDY    66  59  77 S6        30.07R
NEW CASTLE     CLOUDY    71  64  78 VRB3      30.05R
BEAVER COUNTY  NOT AVBL
BUTLER*        MOCLDY    70  61  73 SW6       30.08R
PITTSBURGH INT PTCLDY    70  62  76 S3        30.05R
PITTSBURGH     CLEAR     70  61  73 S7        30.05R
INDIANA*       PTCLDY    64  63  94 CALM      30.10R
LATROBE        CLOUDY    66  66 100 SW3       30.07R
WASHINGTON CO* CLEAR     63  61  94 CALM      30.07R
$$

PAZ004>006-010>012-017>019-024>028-033>037-041-042-045-046-049>053-270500-
CENTRAL PENNSYLVANIA

CITY           SKY/WX    TMP DP  RH WIND       PRES   REMARKS
BRADFORD       CLEAR     64  59  83 CALM      30.07S
DUBOIS         PTCLDY    67  59  75 CALM      30.06S
CLEARFIELD     PTCLDY    67  63  87 NW3       30.06F
JOHNSTOWN      PTCLDY    68  56  65 SW5       30.10R
ALTOONA        CLOUDY    65  63  93 CALM      30.08S
STATE COLLEGE  PTCLDY    66  64  91 CALM      30.06S
WILLIAMSPORT   CLEAR     68  61  78 W3        30.03R
SELINSGROVE    CLOUDY    69  64  84 CALM      30.03S
FT INDIANTOWN  MOCLDY    70  66  88 CALM      30.04F
CAPITAL CITY   CLOUDY    77  63  61 N5        30.03R
HARRISBURG     CLOUDY    74  65  73 SE3       30.02S
YORK           CLOUDY    74  65  73 SW5       30.03F
$$

PAZ038>040-043-044-047-048-054-055-060>062-067>071-270500-
EASTERN PENNSYLVANIA

CITY           SKY/WX    TMP DP  RH WIND       PRES   REMARKS
SCRANTON       CLOUDY    76  59  55 CALM      30.04F
MOUNT POCONO   CLEAR     64  55  72 SW5       30.11S
ALLENTOWN      PTCLDY    78  55  44 SW5       30.05S
QUAKERTOWN*    MOCLDY    72  61  68 CALM      30.07F
READING        CLOUDY    76  58  53 S6        30.03F
LANCASTER      MOCLDY    76  63  64 S10       30.04F
COATESVILLE    CLOUDY    70  61  73 CALM      30.08F
POTTSTOWN      CLOUDY    71  59  65 CALM      30.07S
BLUE BELL      MOCLDY    72  59  64 CALM      30.05S
DOYLESTOWN     MOCLDY    69  56  62 S3        30.06S
WILLOW GROVE   NOT AVBL
NORTH PHILA    CLEAR     75  57  53 CALM      30.07S
PHILADELPHIA   PTCLDY    74  59  59 CALM      30.06S
$$




USA.gov is the U.S. government's official web portal to all federal, state and local government web resources and services.